www.pogodaiklimat.ru
Время
и дата
00:51 30.12
01:51 30.12
02:51 30.12
03:51 30.12
04:51 30.12
05:51 30.12
06:51 30.12
07:51 30.12
08:51 30.12
09:51 30.12
10:51 30.12
11:51 30.12
12:51 30.12
13:51 30.12
14:51 30.12
15:51 30.12
16:51 30.12
17:51 30.12
18:51 30.12
19:51 30.12
20:51 30.12
21:51 30.12
22:51 30.12
23:02 30.12
23:11 30.12
23:51 30.12
00:51 31.12
01:51 31.12
02:51 31.12
03:51 31.12
04:51 31.12
05:16 31.12
05:20 31.12
05:22 31.12
05:29 31.12
05:46 31.12
05:51 31.12
05:57 31.12
06:31 31.12
06:51 31.12
07:51 31.12
08:51 31.12
09:51 31.12
10:51 31.12
11:51 31.12
12:51 31.12
13:51 31.12
14:51 31.12
Ветер
(напр.,м/с)
Видим. Явления Облачность Т
(С)
Тd
(С)
f
(%)
Тe
(С)
Тes
(С)
Комфортность P
(гПа)
Po
(гПа)
Тmin
(С)
Tmax
(С)
R
(мм)
R24
(мм)
S
(см)
В 1 16 км 5/5 1500 м +5.6 +4.4 92 +3 +3 1009.8 1000.1
штиль 0 8 км дымка ясно +5.6 +3.9 89 +5 +5 1009.8 1000.1
штиль 0 16 км 10/10 1500 м +6.1 +4.4 89 +5 +5 1009.8 1000.1
штиль 0 16 км 10/10 1350 м +7.2 +5.6 90 +6 +6 1009.4 999.7 +5.6 +8.9 0.5
штиль 0 16 км 10/10 1320 м +7.2 +5.6 90 +6 +6 1009.4 999.7
ЮВ 1 16 км 10/10 1800 м +7.2 +5.6 90 +4 +4 1009.3 999.4
С 1 16 км 5/5 1800 м +6.7 +5.0 89 +4 +4 1009.7 1000.1
ЮВ 1 16 км 8/8 1650 м +6.1 +5.0 93 +4 +4 1010.1 1000.4
штиль 0 16 км 10/10 1650 м +8.3 +7.2 93 +7 +7 1010.9 1001.1
штиль 0 16 км 8/8 1260 м +8.9 +7.8 93 +8 +9 1011.6 1001.7 +5.6 +9.4
В 1 16 км 8/8 1230 м +11.7 +7.8 77 +11 +11 1011.3 1001.4
штиль 0 16 км слабый дождь 8/8 1380 м +14.4 +8.3 67 +14 +16 1010.3 1000.7
штиль 0 16 км 10/10 1200 м +15.0 +7.8 62 +15 +15 1009.7 1000.1
ЮЗ 1 16 км 8/8 1500 м +15.0 +8.3 64 +15 +16 1009.3 999.7
СЗ 3 16 км 10/10 1200 м +15.0 +8.9 67 +13 +13 1009.3 999.7
СЗ 2 16 км 10/10 1110 м +12.2 +10.0 86 +10 +10 1009.9 1000.4 +8.9 +16.1
Ю 1 11 км 10/10 1080 м +12.2 +9.4 83 +11 +11 1010.1 1000.4
З 1 14 км 10/10 1320 м +11.7 +10.0 89 +10 +10 1010.7 1001.1
штиль 0 16 км 5/5 1380 м +10.6 +9.4 92 +10 +10 1010.8 1001.1 0.3
штиль 0 5 км дымка 2/2 1080 м +10.0 +8.9 93 +9 +9 1010.9 1001.1
Ю 1 8 км дымка ясно +8.9 +7.8 93 +7 +7 1010.6 1000.7
штиль 0 11 км 5/0 2100 м
[Ac]
+8.3 +6.7 90 +7 +7 1011.0 1001.1 +8.3 +12.8 0.3
штиль 0 8 км дымка ясно +7.2 +5.6 90 +6 +6 1011.2 1001.4
штиль 0 3 км дымка 2/2 1140 м +7.2 +5.6 90 +6 +6 1001.4
штиль 0 8 км дымка 8/8 1140 м +7.8 +6.1 89 +7 +7 1001.4
ЮВ 1 10 км дымка 5/5 1110 м +7.2 +5.6 90 +5 +5 1010.9 1001.1
Ю 1 10 км дымка ясно +6.7 +5.0 89 +4 +4 1010.7 1001.1
ЮВ 1 11 км 2/2 1500 м +6.1 +4.4 89 +4 +4 1010.5 1000.7
штиль 0 11 км ясно +5.6 +4.4 92 +5 +5 1010.4 1000.7
ЮВ 1 10 км дымка ясно +4.4 +2.8 89 +2 +2 1009.9 1000.1 +4.4 +8.3 0.3
штиль 0 10 км дымка ясно +4.4 +3.3 93 +3 +3 1009.9 1000.1
З 1 3 км дымка 2/2 60 м +3.9 +2.2 89 +1 +1 1000.1
штиль 0 2 км дымка ?/? +3.9 +2.2 89 +3 +3 1000.1
штиль 0 1 км дымка ?/? +3.9 +2.2 89 +3 +3 1000.1
штиль 0 800 м туман ?/? +3.3 +2.2 92 +2 +2 1000.1
штиль 0 800 м туман 8/8 60 м +3.0 +2.0 93 +2 +2 1000.1
штиль 0 800 м туман 8/8 60 м +3.3 +2.2 92 +2 +2 1009.9 1000.1
ЮВ 1 5 км дымка 8/8 540 м +3.3 +2.2 92 0 0 1000.1
Ю 1 5 км дымка 5/5 570 м +3.9 +2.2 89 +1 +1 1000.1
Ю 1 11 км ясно +3.3 +1.7 89 0 0 1009.9 1000.1
штиль 0 8 км дымка ясно +3.9 +2.8 93 +3 +3 1010.1 1000.4
З 1 13 км ясно +6.7 +5.6 93 +4 +5 1010.7 1000.7
СЗ 3 16 км 2/2 750 м +10.6 +7.8 83 +7 +8 1011.0 1001.1 +2.8 +10.6
СЗ 3 16 км 5/5 1410 м +12.2 +7.2 71 +9 +10 1010.7 1001.1
СЗ 3 16 км 8/8 1350 м +12.8 +6.7 66 +10 +11 1009.8 1000.1
СЗ 4 16 км 5/5 1200 м +13.9 +5.6 57 +11 +12 1009.6 999.7
СЗ 4 16 км 5/5 1200 м +13.3 +5.0 57 +11 +11 1009.3 999.7
СЗ 4 16 км 5/5 1200 м +13.3 +4.4 55 +11 +11 1009.5 999.7
Местоположение метеостанции Santa Maria Public Airport: широта 34.8994 долгота -120.4486 высота над уровнем моря 78 м.
В архиве по умолчанию представлена погода в Санта-Марии за последние 1-2 суток. Обновление информации о фактической погоде в базе происходит ежечасно! Архивные данные за месяц целиком и за предыдущие месяцы Вы можете получить, выбрав интересующий диапазон дат из раскрывающегося списка и нажав кнопку "Ввод!".
Внимание! Архив погоды МЕТАР в базе сайта по станциям, не включенным в климатический монитор, хранится не более 60 дней. Нет смысла пытаться выбрать более раннюю дату.
*Определитесь, кто Вы:
Внимание! Время в таблицах - местное (без учета летнего времени). Для получения всемирного времени необходимо вычесть поправку, которая равна -8 ч.
Смотрите также архив погоды в соседних городах и на ближайших метеорологических станциях:
Партнеры нашего сайта:      
Пояснения к столбцам:
  • Ветер - указаны скорость ветра в м/с - средняя за 10 мин, порывы в срок и между сроками (в фигурных скобках) и направление, откуда дует ветер: С - северный,
  • СВ - северо-восточный, В - восточный, ЮВ - юго-восточный, Ю - южный, ЮЗ - юго-западный, З - западный, СЗ - северо-западный.
  • Видимость - горизонтальная дальность видимости в метрах или километрах. При видимости от 1 до 10 км при отсутствии осадков обычно наблюдается дымка, при ухудшении видимости до 1 км и менее - туман. В сухую погоду видимость может ухудшаться дымом, пылью или мглою.
  • Явления - указаны атмосферные явления, наблюдавшиеся в срок или в последний час перед сроком; фигурными скобками обозначены явления, наблюдавшиеся между сроками (за 1-3 часа до срока); квадратными скобками обозначены град или гололедные отложения с указанием их диаметра в мм.
  • Облачность - указаны через наклонную черту общая и нижняя облачность в баллах и высота нижней границы облаков в метрах; квадратными скобками обозначены формы облаков: Ci - перистые, Cs - перисто-слоистые, Cc - перисто-кучевые, Ac - высококучевые, As - высокослоистые, Sc - слоисто-кучевые, Ns - слоисто-дождевые, Cu - кучевые, Cb - кучево-дождевые. Подробнее классификацию облаков см. в Атласе облаков (PDF).
  • T - Температура воздуха - температура, измеренная на высоте 2 м над землей.
  • Td - Температура точки росы - температура, при понижении до которой содержащийся в воздухе водяной пар достигнет насыщения.
  • f - Относительная влажность воздуха - влажноcть воздуха, измеренная на высоте 2 м над землей.
  • Te - Эффективная температура - температура, которую ощущает одетый по сезону человек в тени. Характеристика душности погоды. При расчете учитывается влияние влажности воздуха и скорости ветра на теплоощущения человека.
  • Tes - Эффективная температура на солнце - температура, которую ощущает человек, с поправкой на солнечный нагрев. Характеристика знойности погоды. Зависит от высоты солнца над горизонтом, облачности и скорости ветра. Ночью, в пасмурную погоду, а также при ветре 12 м/с и более поправка равна нулю.
  • P - Атмосферное давление - приведенное к уровню моря атмосферное давление.
  • Po - Атмосферное давление - измеренное на уровне метеостанции атмосферное давление.
  • Tmin - Минимальная температура - минимум температуры воздуха на высоте 2 м над землей.
  • Tmax - Максимальная температура - максимум температуры воздуха на высоте 2 м над землей.
  • R - Количество осадков - Количество выпавших осадков за период времени, мм. При наведении курсора мыши на число - период времени, за который выпало указанное количество осадков.
  • R24 - Количество осадков - Количество выпавших осадков за 24 часа, мм.
  • S - Снежный покров - Высота снежного покрова, см. При наведении курсора мыши на число - состояние снежного покрова и степень покрытия местности в баллах.